Weather History for Hugo, OK

Change the Weather History Date:

Friday, December 7, 2012

  Actual Average Record
Temperature  
Mean Temperature 62 °F -  
Max Temperature 73 °F 56 °F 73 °F (2012)
Min Temperature 50 °F 37 °F 50 °F (2012)
Degree Days  
Heating Degree Days 4    
Growing Degree Days 12 (Base 50)    
Moisture  
Dew Point 49 °F    
Average Humidity 74    
Maximum Humidity 97    
Minimum Humidity 33    
Precipitation  
Precipitation 0.00 in - - ()
Sea Level Pressure  
Sea Level Pressure 29.84 in    
Wind  
Wind Speed 6 mph (South)    
Max Wind Speed 10 mph    
Max Gust Speed 17 mph    
Visibility 7 miles    
Events      
Averages and records for this station are not official NWS values.
T = Trace of Precipitation, MM = Missing Value Source: NWS Daily Summary

Daily Weather History Graph

Daily Weather History Graph

Search for Another Location

Airport:

Trip Planner

Search our weather history database for the weather conditions in past years. The results will help you decide how hot, cold, wet, or windy it might be!

Date:

Astronomy

Dec. 07, 2012 Rise Set
Actual Time 7:14 AM CST 5:12 PM CST
Civil Twilight 6:47 AM CST 5:40 PM CST
Nautical Twilight 6:16 AM CST 6:11 PM CST
Astronomical Twilight 5:45 AM CST 6:41 PM CST
Moon 12:50 AM CST (12/7) 12:56 PM CST (12/7)
Length of Visible Light 10h 53m
Length of Day
9h 57m
Last Quarter, 38% of the Moon is Illuminated
Dec 7
Last Quarter
Dec 13
New
Dec 19
First Quarter
Dec 28
Full
Jan 4
Last Quarter

Hourly Weather History & Observations

Time (CST) Temp. Dew Point Humidity Pressure Visibility Wind Dir Wind Speed Gust Speed Precip Events Conditions
12:15 AM 50.2 °F 48.4 °F 94% 29.88 in 7.0 mi ESE 6.9 mph - N/A   Clear
12:35 AM 50.0 °F 48.2 °F 94% 29.87 in 7.0 mi ESE 5.8 mph - N/A   Clear
12:55 AM 50.0 °F 48.2 °F 94% 29.87 in 7.0 mi ESE 6.9 mph - N/A   Clear
1:15 AM 50.0 °F 48.6 °F 95% 29.86 in 7.0 mi ESE 8.1 mph - N/A   Clear
1:35 AM 50.0 °F 48.6 °F 95% 29.86 in 7.0 mi ESE 6.9 mph - N/A   Scattered Clouds
1:55 AM 50.9 °F 49.3 °F 94% 29.85 in 7.0 mi ESE 9.2 mph - N/A   Overcast
2:15 AM 51.4 °F 49.6 °F 94% 29.86 in 7.0 mi ESE 8.1 mph - N/A   Overcast
2:35 AM 51.8 °F 50.0 °F 94% 29.86 in 7.0 mi ESE 8.1 mph - N/A   Overcast
2:55 AM 52.2 °F 50.5 °F 94% 29.85 in 4.0 mi SE 10.4 mph - N/A   Overcast
3:15 AM 52.0 °F 50.9 °F 96% 29.85 in 1.5 mi ESE 6.9 mph - N/A   Overcast
3:35 AM 52.2 °F 51.1 °F 96% 29.85 in 0.8 mi SE 5.8 mph - N/A   Overcast
3:55 AM 52.2 °F 51.3 °F 97% 29.85 in 1.0 mi SE 6.9 mph - N/A   Overcast
4:15 AM 52.7 °F 51.8 °F 97% 29.84 in 1.0 mi ESE 8.1 mph - N/A   Overcast
4:35 AM 52.7 °F 51.8 °F 97% 29.85 in 1.0 mi ESE 5.8 mph - N/A   Overcast
4:55 AM 52.7 °F 51.8 °F 97% 29.84 in 0.8 mi ESE 5.8 mph - N/A   Overcast
5:15 AM 52.7 °F 51.8 °F 97% 29.84 in 1.0 mi SE 5.8 mph - N/A   Overcast
5:35 AM 52.7 °F 52.0 °F 97% 29.84 in 1.0 mi ESE 5.8 mph - N/A   Overcast
5:55 AM 53.1 °F 52.3 °F 97% 29.84 in 1.5 mi SSE 4.6 mph - N/A   Overcast
6:15 AM 53.6 °F 52.7 °F 97% 29.84 in 2.0 mi ESE 4.6 mph - N/A   Overcast
6:35 AM 53.6 °F 52.9 °F 97% 29.85 in 2.0 mi SE 3.5 mph - N/A   Overcast
6:55 AM 54.0 °F 53.2 °F 97% 29.86 in 2.5 mi Calm Calm - N/A   Overcast
7:15 AM 54.0 °F 53.2 °F 97% 29.85 in 2.5 mi ESE 4.6 mph - N/A   Overcast
7:35 AM 54.5 °F 53.6 °F 97% 29.86 in 2.5 mi ESE 4.6 mph - N/A   Overcast
7:55 AM 54.7 °F 53.8 °F 97% 29.86 in 1.8 mi SE 3.5 mph - N/A   Overcast
8:15 AM 54.9 °F 54.0 °F 97% 29.86 in 1.8 mi SE 4.6 mph - N/A   Overcast
8:35 AM 55.4 °F 54.5 °F 97% 29.86 in 2.0 mi ESE 6.9 mph - N/A   Overcast
8:55 AM 56.3 °F 54.7 °F 94% 29.85 in 2.5 mi SSE 5.8 mph - N/A   Overcast
9:15 AM 56.8 °F 55.2 °F 94% 29.86 in 3.0 mi SSE 5.8 mph - N/A   Overcast
9:35 AM 57.6 °F 55.4 °F 92% 29.87 in 4.0 mi SSE 5.8 mph - N/A   Overcast
9:55 AM 58.6 °F 55.6 °F 90% 29.86 in 4.0 mi South 4.6 mph - N/A   Overcast
10:15 AM 59.0 °F 55.4 °F 88% 29.86 in 5.0 mi South 4.6 mph - N/A   Overcast
10:35 AM 59.9 °F 55.4 °F 85% 29.86 in 7.0 mi SSE 8.1 mph - N/A   Overcast
10:55 AM 60.8 °F 54.7 °F 80% 29.86 in 7.0 mi South 5.8 mph - N/A   Overcast
11:15 AM 63.1 °F 54.7 °F 74% 29.85 in 7.0 mi SSE 5.8 mph - N/A   Mostly Cloudy
11:35 AM 64.8 °F 52.5 °F 64% 29.84 in 10.0 mi South 6.9 mph - N/A   Mostly Cloudy
11:55 AM 66.4 °F 52.5 °F 61% 29.83 in 10.0 mi South 9.2 mph - N/A   Scattered Clouds
12:15 PM 67.6 °F 51.8 °F 57% 29.82 in 10.0 mi SSE 6.9 mph - N/A   Scattered Clouds
12:35 PM 68.0 °F 51.4 °F 55% 29.80 in 10.0 mi SSE 6.9 mph - N/A   Scattered Clouds
12:55 PM 69.1 °F 50.9 °F 52% 29.80 in 10.0 mi North - - N/A   Clear
1:15 PM 70.2 °F 50.5 °F 50% 29.79 in 10.0 mi SW 5.8 mph - N/A   Clear
1:35 PM 70.5 °F 50.0 °F 48% 29.78 in 10.0 mi SSW 5.8 mph - N/A   Clear
1:55 PM 72.1 °F 48.2 °F 43% 29.77 in 10.0 mi North - - N/A   Clear
2:15 PM 72.7 °F 45.9 °F 38% 29.77 in 10.0 mi North - - N/A   Clear
2:35 PM 73.0 °F 45.1 °F 37% 29.77 in 10.0 mi SSW 9.2 mph - N/A   Clear
2:55 PM 72.7 °F 43.7 °F 35% 29.77 in 10.0 mi SSW 9.2 mph 17.3 mph N/A   Clear
3:15 PM 72.5 °F 43.3 °F 35% 29.77 in 10.0 mi SSW 10.4 mph 16.1 mph N/A   Clear
3:35 PM 72.0 °F 42.3 °F 34% 29.77 in 10.0 mi SW 8.1 mph - N/A   Clear
3:55 PM 71.6 °F 41.2 °F 33% 29.77 in 10.0 mi North - - N/A   Clear
4:15 PM 71.2 °F 41.0 °F 33% 29.78 in 10.0 mi SW 8.1 mph - N/A   Clear
4:35 PM 69.6 °F 39.6 °F 33% 29.78 in 10.0 mi West 9.2 mph - N/A   Clear
4:55 PM 68.0 °F 39.6 °F 35% 29.79 in 10.0 mi WSW 5.8 mph - N/A   Clear
5:15 PM 66.2 °F 40.1 °F 38% 29.79 in 10.0 mi WNW 6.9 mph - N/A   Clear
5:35 PM 64.4 °F 42.3 °F 44% 29.80 in 10.0 mi West 5.8 mph - N/A   Clear
5:55 PM 62.6 °F 43.9 °F 50% 29.81 in 10.0 mi WNW 6.9 mph - N/A   Scattered Clouds
6:15 PM 61.9 °F 45.5 °F 55% 29.81 in 10.0 mi WNW 5.8 mph - N/A   Overcast
6:35 PM 61.3 °F 45.5 °F 56% 29.82 in 10.0 mi NW 5.8 mph - N/A   Overcast
7:15 PM 60.4 °F 45.0 °F 57% 29.83 in 10.0 mi NW 4.6 mph - N/A   Overcast
7:35 PM 60.4 °F 44.8 °F 56% 29.83 in 10.0 mi NW 4.6 mph - N/A   Overcast
7:55 PM 60.3 °F 45.1 °F 57% 29.83 in 10.0 mi NW 3.5 mph - N/A   Overcast
8:15 PM 59.5 °F 45.9 °F 61% 29.84 in 10.0 mi NW 4.6 mph - N/A   Overcast
8:35 PM 59.0 °F 46.4 °F 63% 29.85 in 10.0 mi Calm Calm - N/A   Overcast
8:55 PM 57.9 °F 46.6 °F 66% 29.85 in 10.0 mi WNW 3.5 mph - N/A   Overcast
9:15 PM 57.2 °F 46.6 °F 68% 29.85 in 10.0 mi WNW 3.5 mph - N/A   Overcast
9:35 PM 56.3 °F 46.6 °F 70% 29.86 in 10.0 mi WNW 4.6 mph - N/A   Mostly Cloudy
9:55 PM 54.9 °F 46.6 °F 74% 29.86 in 10.0 mi WNW 3.5 mph - N/A   Scattered Clouds
10:15 PM 54.7 °F 46.8 °F 75% 29.87 in 10.0 mi WNW 3.5 mph - N/A   Mostly Cloudy
10:35 PM 53.6 °F 46.4 °F 77% 29.87 in 10.0 mi NW 4.6 mph - N/A   Mostly Cloudy
10:55 PM 53.2 °F 46.8 °F 79% 29.87 in 10.0 mi NW 4.6 mph - N/A   Mostly Cloudy
11:15 PM 52.9 °F 46.8 °F 80% 29.87 in 10.0 mi NNW 4.6 mph - N/A   Scattered Clouds
11:35 PM 52.5 °F 46.8 °F 81% 29.88 in 10.0 mi NW 4.6 mph - N/A   Clear
11:55 PM 53.1 °F 47.3 °F 81% 29.88 in 10.0 mi NW 3.5 mph - N/A   Mostly Cloudy